Regional Weather Roundup
Issued by NWS

Home | Current Version | Previous Version | Graphics & Text | Print | Product List | Glossary On
Versions: 1 2 3 4 5 6 7 8 9 10 11 12 13 14 15 16 17 18 19 20 21 22 23 24 25 26 27 28 29 30 31 32 33 34 35 36 37 38 39 40 41 42 43 44 45 46 47 48 49 50
371
ASUS44 KMEG 220810
RWRTN
TENNESSEE HOURLY STATE WEATHER ROUNDUP
NATIONAL WEATHER SERVICE MEMPHIS TN
300 AM CDT FRI SEP 22 2017

TNZ002-004-019-021-049-052-054-088>092-220900-
WEST TENNESSEE

CITY           SKY/WX    TMP DP  RH WIND       PRES   REMARKS
MEMPHIS INTL   PTCLDY    76  70  82 CALM      30.00F
NWS MEMPHIS      N/A     72 N/A N/A MISG        N/A
JACKSON        CLEAR     69  69 100 CALM      30.02F FOG
DYERSBURG      CLEAR     71  70  96 CALM      30.02F
SOMERVILLE     CLEAR     72  70  94 CALM      30.00F FOG
COVINGTON      CLOUDY    70  70 100 CALM      30.01S
BOLIVAR        FOG       70  68  94 CALM      30.01S VSB 1/2
PARIS          PTCLDY    66  66 100 CALM      30.03S FOG
HUNTINGDON     CLEAR     68  68 100 CALM      30.02S FOG
LEXINGTON      FOG       68  68 100 CALM      30.02F VSB 3/4
SAVANNAH       CLEAR     66  66 100 CALM      30.01F FOG
$$

TNZ008-025-027-028-033-062-065-066-220900-
NORTH MIDDLE TENNESSEE

CITY           SKY/WX    TMP DP  RH WIND       PRES   REMARKS
NASHVILLE      CLEAR     69  67  93 CALM      30.04F
PORTLAND       FOG       66  66 100 CALM      30.05S VSB 1/4
CLARKSVILLE    FOG       67  66  97 CALM      30.04F VSB 1/4
SMYRNA           N/A    N/A N/A N/A MISG        N/A
COOKEVILLE     FOG       61  61 100 CALM      30.06S VSB 0
GALLATIN       CLEAR     68  66  94 CALM      30.06F
CROSSVILLE     CLEAR     62  61  96 CALM      30.11S FOG
$$

TNZ061-075-076-078-094-096-097-220900-
SOUTH MIDDLE TENNESSEE

CITY           SKY/WX    TMP DP  RH WIND       PRES   REMARKS
TULLAHOMA      CLEAR     63  61  94 CALM      30.06S
WINCHESTER     PTCLDY    63  63 100 CALM      30.05S
MCMINNVILLE    CLOUDY    66  66 100 CALM      30.06S VSB 1/4
COLUMBIA       FOG       68 N/A N/A CALM      30.02F VSB 0
SHELBYVILLE    FOG       66  66 100 CALM      30.05R VSB 1/2
$$

TNZ017-018-042-046-047-220900-
NORTHEAST TENNESSEE

CITY           SKY/WX    TMP DP  RH WIND       PRES   REMARKS
TRI CITIES     PTCLDY    61  61 100 CALM      30.10S FOG
ELIZABETHTON   CLEAR     64  63  94 E3        30.11S
$$

TNZ012-013-036-069-073-074-220900-
CENTRAL EAST TENNESSEE

CITY           SKY/WX    TMP DP  RH WIND       PRES   REMARKS
KNOXVILLE      CLEAR     68  63  84 CALM      30.05S
OAK RIDGE      CLEAR     67  65  93 CALM      30.07F
DOWNTOWN KNOXV CLEAR     66  66 100 CALM      30.05S FOG
GATLINBURG     CLEAR     63  61  94 CALM      30.06S
MORRISTOWN     CLEAR     68  64  88 NE3       30.06F
JACKSBORO      FOG       63  63 100 CALM      30.11F VSB 1/4
$$

TNZ083-085-099-220900-
SOUTHEAST TENNESSEE

CITY           SKY/WX    TMP DP  RH WIND       PRES   REMARKS
CHATTANOOGA    CLEAR     68  66  93 CALM      30.04S
DAYTON         SUNNY     66  64  94 CALM      30.04R FOG
$$

SKY/WX REPORTED AS FAIR MEANS FEW OR NO CLOUDS BELOW
12 THOUSAND FEET.





USA.gov is the U.S. government's official web portal to all federal, state and local government web resources and services.